Location: Drocourt
(49.0571°N, 1.7669°E)
Time: 02:40:33
(UTC+00:00)

Transit 4A - Pass Details

Date: 17 April 2024
Orbit: 871 x 971 km, 66.8° (Epoch: 19 May)

Event Time Altitude Azimuth Distance (km) Brightness Sun altitude
Rises 18:15:52 0° 313° (NW) 3,487 12.1 4.4°
Reaches altitude 10° 18:19:43 10° 337° (NNW) 2,536 10.8 3.8°
Maximum altitude 18:22:46 14° 9° (N) 2,239 10.0 3.3°
Drops below altitude 10° 18:25:48 10° 41° (NE) 2,528 9.9 2.8°
Sets 18:29:38 0° 66° (ENE) 3,468 10.4 2.2°
